Theta_e
321 319 318 318 319 320 319 318 317 318 318 318 321 319 319 323 325 324 326 327 326 324 324 325 327 328 327 328 329 328 326 327 327 324 322 323 324 323 321 321 319 319 313 312
321 321 321 321 321 320 320 320 320 320 317 316 315 317 317 320 323 325 324 323 324 322 324 324 326 329 329 329 330 330 328 325 323 322 323 323 322 319 319 319 318 314 312 311
322 321 321 321 321 321 323 322 321 321 321 317 316 315 317 318 322 325 325 323 322 321 323 323 323 326 331 331 331 329 328 326 325 324 324 320 320 319 318 316 313 312 312 311
322 321 322 322 322 321 323 322 322 321 321 320 320 319 321 318 320 322 325 325 325 323 323 324 325 327 329 332 332 330 329 327 324 324 322 321 320 315 313 314 314 313 313 312
323 322 321 322 322 321 321 321 322 323 323 322 321 319 319 320 319 320 321 325 325 325 325 326 327 328 329 331 332 330 327 326 325 323 323 318 315 316 316 315 314 314 312 311
319 320 321 321 322 321 322 321 322 323 323 322 322 321 322 320 321 323 323 325 325 326 327 328 329 330 330 330 331 329 326 324 324 324 319 318 317 317 316 315 314 313 311 309
320 320 321 321 320 321 321 321 324 323 323 324 323 322 322 322 321 322 321 322 324 328 328 329 330 331 331 330 330 328 327 326 324 319 319 317 317 316 315 314 313 310 308 306
321 322 321 321 321 323 321 323 321 327 327 323 323 324 322 321 321 322 323 322 323 327 329 330 331 332 331 329 328 325 327 325 324 319 318 317 318 316 314 313 311 310 309 307
323 323 323 322 322 321 323 323 323 324 323 319 319 318 321 321 322 322 323 323 328 329 330 331 331 331 329 328 325 326 326 324 321 319 318 318 318 317 315 311 310 309 308 306
322 324 322 322 322 320 321 320 321 319 319 320 319 320 323 322 323 322 323 327 329 329 329 328 329 328 327 326 327 325 322 320 320 319 318 318 317 315 311 309 306 307 304 301
320 320 322 321 324 320 321 320 320 319 320 320 320 318 318 320 320 321 323 328 328 328 327 326 327 326 326 326 326 324 321 319 319 318 318 316 314 311 308 307 305 301 301 300
321 320 323 324 321 320 319 320 322 317 320 319 315 317 317 317 318 320 323 327 327 327 326 326 324 323 322 321 321 321 320 320 319 318 316 313 311 308 307 305 301 300 300 299
322 320 321 322 321 321 320 320 319 320 319 320 315 316 315 316 316 319 320 325 327 327 326 325 324 321 321 320 320 321 320 319 317 316 313 311 308 306 304 301 302 300 299 298
322 322 320 318 317 318 321 321 319 319 316 318 317 319 317 315 314 316 318 319 325 326 326 325 324 321 321 321 321 321 320 319 316 313 311 309 305 303 302 301 299 299 298 298
320 320 319 318 320 320 320 320 320 320 320 318 318 319 317 316 314 315 317 318 318 320 325 325 323 322 321 321 321 320 320 319 315 311 309 305 303 303 301 300 300 299 298 296
320 320 320 322 321 318 317 317 318 317 317 318 317 317 316 316 316 316 316 316 317 317 318 322 323 322 322 322 320 319 318 316 311 309 305 303 302 300 300 300 298 297 296 295
321 320 316 321 314 315 312 315 316 317 317 316 316 315 313 313 314 315 316 316 316 316 316 320 321 321 321 320 320 317 314 311 309 306 303 301 300 300 298 297 295 295 295 294
321 321 314 314 311 311 316 314 313 313 313 312 312 311 313 313 315 315 315 315 315 316 316 316 318 319 319 318 316 313 310 308 306 303 301 300 298 297 296 295 294 294 294 294
322 316 315 312 313 316 316 314 315 314 314 313 312 312 314 314 316 315 315 314 314 314 314 315 316 317 316 314 312 311 307 304 302 300 299 297 295 295 295 294 294 293 293 293
318 317 311 313 314 311 315 314 314 314 314 314 314 313 315 316 312 314 315 315 314 314 314 315 315 314 311 308 308 305 302 300 298 298 296 295 295 294 293 293 293 292 293 292
311 312 311 308 309 314 317 314 314 311 313 315 315 315 315 314 316 316 315 314 314 314 314 313 312 309 304 303 303 301 299 298 297 296 296 297 295 293 293 292 292 291 292 292
314 314 309 313 316 317 314 314 313 315 315 315 315 314 314 314 314 315 313 313 311 310 309 309 308 304 301 300 300 299 298 296 297 299 300 297 293 293 291 291 292 292 292 292
318 318 316 316 315 316 315 315 315 315 315 315 315 315 315 315 315 313 309 307 306 306 305 303 304 301 300 300 299 299 299 300 300 297 294 293 292 290 291 292 292 292 292 292
318 318 316 313 316 313 316 315 315 315 315 315 315 314 314 313 312 308 307 303 302 301 301 301 300 300 300 301 301 299 296 295 295 294 292 291 290 290 291 291 290 291 292 292
316 315 316 314 316 315 313 314 314 314 312 312 311 311 310 312 306 305 304 302 301 300 300 300 300 300 298 296 295 294 293 293 292 291 290 290 290 289 289 290 290 290 291 291
316 316 310 312 314 313 309 309 310 310 308 307 309 307 305 305 303 303 301 300 300 299 298 298 297 296 295 294 293 293 292 291 290 290 290 289 289 289 290 290 290 290 290 290
Wind_Speed
7 4 5 8 6 4 5 6 8 9 8 6 9 9 11 20 23 23 30 31 28 28 29 26 25 28 33 29 24 24 25 27 25 23 18 18 18 19 18 17 15 11 7 5
6 7 8 7 8 7 6 11 10 13 5 4 7 8 11 12 17 28 29 31 31 29 32 28 29 31 33 31 28 27 26 25 22 20 16 14 15 15 10 12 11 10 8 5
6 11 17 3 9 13 3 6 2 2 5 5 3 5 6 7 13 26 32 31 31 31 35 34 30 24 30 34 34 24 22 16 19 16 16 15 13 14 15 13 11 9 8 8
6 7 10 8 13 6 4 5 5 3 5 2 2 3 1 5 10 12 24 33 34 33 33 35 33 27 23 31 26 22 16 14 16 16 15 17 19 17 12 5 7 10 10 6
6 1 2 5 6 6 6 7 10 8 7 10 4 5 6 2 5 6 5 29 37 40 40 39 34 31 25 25 24 16 13 16 21 21 16 16 13 8 9 11 11 10 8 8
6 8 1 2 8 11 3 2 4 4 1 1 5 5 4 6 8 5 5 19 20 37 40 34 30 32 31 27 21 14 17 21 20 21 20 15 14 17 18 20 19 14 7 11
4 5 10 12 6 3 7 3 3 5 6 5 8 3 8 11 12 8 18 36 17 20 34 34 35 35 32 27 23 22 24 23 25 26 22 20 18 21 19 17 16 17 15 12
5 1 5 3 3 4 3 3 4 4 2 6 7 6 5 14 13 26 28 30 22 17 26 31 33 30 26 23 24 24 27 30 31 28 24 24 21 20 18 19 20 18 14 18
5 3 8 10 11 3 2 4 4 6 2 2 4 4 5 7 4 7 17 20 21 21 20 23 23 22 23 24 22 24 30 29 29 28 27 26 25 24 21 21 19 20 19 21
2 5 2 3 9 8 7 7 1 3 3 3 4 3 3 6 3 8 9 19 20 19 19 20 24 26 28 27 29 28 22 24 25 25 27 28 27 24 22 18 18 17 23 19
6 4 2 11 4 8 1 3 2 3 5 4 1 4 1 7 8 9 14 26 25 24 23 24 27 29 30 29 29 26 25 24 26 28 29 27 25 22 17 20 18 12 18 22
8 4 4 9 18 15 6 6 6 5 4 3 5 5 2 7 9 15 17 29 30 29 28 28 30 31 30 28 24 22 27 26 30 30 28 23 18 14 17 15 12 14 20 19
3 2 4 1 9 8 4 6 4 3 4 4 5 5 2 5 5 10 12 19 29 30 30 31 32 34 32 30 29 28 29 26 30 29 25 19 14 15 13 14 15 15 18 20
5 0 5 6 6 3 3 4 5 4 4 4 5 5 10 7 8 10 13 8 23 31 31 32 36 38 38 35 32 28 31 28 25 24 20 15 10 11 16 15 13 18 20 21
4 3 1 4 5 5 2 1 4 6 6 6 9 8 9 5 5 5 17 11 6 8 24 29 34 36 34 31 30 26 28 30 28 22 15 7 12 13 15 11 18 22 22 21
2 2 3 1 5 7 4 7 6 7 6 3 2 4 5 5 11 13 13 11 11 11 8 9 15 28 29 28 25 23 29 30 23 16 8 14 13 14 14 16 16 17 19 21
6 4 3 2 4 6 6 7 6 6 4 3 2 4 8 10 11 13 14 17 11 10 11 5 8 12 18 22 23 26 26 21 16 15 18 13 16 15 7 14 14 17 19 21
6 6 3 3 3 2 9 2 5 7 7 8 8 7 10 12 25 23 19 18 19 16 11 8 3 5 8 12 20 19 18 17 19 21 15 8 6 1 7 8 14 16 18 21
4 5 2 4 4 4 7 1 2 4 4 6 8 8 14 12 20 21 18 15 15 12 9 6 2 4 10 16 18 20 22 20 16 11 7 3 3 4 9 12 16 22 23 22
7 5 5 2 4 6 6 3 5 3 1 7 13 9 13 15 5 3 11 15 8 8 4 7 13 16 18 19 20 21 19 17 14 8 7 3 4 6 12 14 21 22 23 25
3 3 5 3 2 7 5 6 2 6 5 9 13 13 12 5 4 3 6 9 8 8 13 18 18 19 20 18 17 19 19 15 10 7 0 11 8 8 16 23 24 21 19 20
6 6 3 3 2 5 9 5 6 6 14 15 14 13 10 9 9 9 12 13 12 13 14 12 14 18 17 15 14 15 12 9 3 13 19 10 11 19 22 18 16 19 23 22
2 6 6 7 6 6 20 25 22 20 18 14 13 8 5 7 12 11 19 18 15 13 13 12 10 11 8 5 2 4 9 17 22 14 8 14 20 17 14 15 19 22 23 22
2 4 4 5 1 11 22 23 18 15 15 12 10 6 7 6 8 17 18 18 17 14 12 8 5 6 9 12 12 8 6 8 11 11 16 18 16 15 17 20 20 18 19 23
5 5 6 4 13 22 19 18 17 15 14 11 8 9 12 10 16 16 15 13 11 9 10 9 9 7 4 3 5 7 7 10 15 17 16 15 17 18 19 19 20 21 23 25
1 4 4 4 9 17 13 19 15 14 16 11 7 10 12 11 13 11 14 14 11 10 9 8 10 9 8 7 8 12 15 16 17 18 19 20 20 21 22 23 25 21 19 21
Wind_Direction
1 321 241 234 252 224 172 258 275 280 237 128 195 177 191 182 165 167 171 173 175 173 172 169 169 178 179 186 197 198 196 198 196 191 204 219 230 234 240 258 246 222 223 225
30 300 299 4 321 270 262 250 264 246 196 118 194 187 186 185 175 174 173 177 180 178 177 176 173 181 193 196 202 204 203 203 205 208 216 226 239 229 208 200 200 216 217 216
111 272 288 178 291 261 338 330 51 153 349 340 30 317 182 204 176 180 181 183 182 174 173 175 176 181 196 199 201 219 214 200 192 204 213 199 188 186 184 187 207 219 228 246
172 231 255 305 308 288 193 238 44 355 47 228 84 254 291 235 195 169 181 183 186 187 193 186 183 185 195 199 207 218 214 212 201 193 212 205 201 195 201 192 220 221 226 265
233 215 17 308 269 255 220 199 181 201 237 272 270 92 274 140 225 194 219 196 195 194 193 187 187 189 194 206 206 209 213 204 180 190 207 185 188 194 206 201 220 219 215 310
193 182 121 254 262 270 139 67 42 75 26 107 239 142 272 216 212 212 191 269 202 195 191 186 191 191 198 203 217 234 192 182 184 194 194 198 200 209 201 204 203 196 219 217
295 264 143 245 302 53 45 49 351 4 11 245 306 178 225 224 226 177 199 227 238 165 179 188 187 192 196 202 209 209 195 192 193 187 197 200 201 192 188 182 191 186 196 215
176 263 333 9 289 183 41 104 157 161 145 288 321 222 264 207 240 237 223 224 227 176 171 181 191 190 193 202 194 189 198 199 197 192 190 200 212 208 201 207 209 221 238 250
133 246 329 306 342 284 335 54 246 114 317 58 254 359 29 113 84 112 182 197 170 168 170 173 185 191 193 188 189 200 204 200 198 197 207 214 220 222 222 219 235 234 232 264
167 127 9 237 321 305 151 218 160 353 156 261 321 5 179 130 195 128 142 161 164 173 180 186 185 187 185 188 192 195 195 202 206 211 216 218 223 224 225 232 225 248 266 239
135 125 309 36 264 235 239 256 247 148 138 171 135 281 186 167 161 166 178 176 177 183 192 194 192 193 194 197 206 214 210 218 218 217 216 216 216 221 227 229 247 233 247 266
198 118 147 227 252 266 191 194 172 123 262 197 146 271 224 141 176 182 189 184 187 192 197 199 200 200 202 206 211 212 204 220 215 215 215 217 224 238 238 253 235 252 259 267
141 208 125 267 286 254 224 238 217 169 97 194 131 257 245 174 166 183 200 193 192 197 199 203 203 202 201 201 200 200 206 212 211 214 218 227 239 238 246 212 272 242 254 261
109 237 149 186 212 224 255 222 274 174 116 206 205 255 301 275 223 203 201 187 200 200 202 204 205 206 202 198 198 204 209 213 216 217 221 234 228 214 220 254 228 270 263 273
110 171 339 312 324 344 290 305 300 306 222 149 234 212 250 263 154 51 203 197 197 191 209 210 208 202 198 202 204 200 204 211 216 214 220 206 201 248 218 228 295 271 275 287
179 207 116 335 349 17 21 330 311 300 300 323 336 249 232 133 81 71 72 62 70 63 44 183 193 196 201 198 199 205 205 204 207 207 194 205 209 214 247 293 264 283 295 298
144 128 87 236 359 10 350 256 244 251 284 259 304 333 66 48 51 46 52 60 61 68 65 90 142 175 193 197 210 205 198 197 198 186 193 198 219 246 291 261 296 300 288 294
146 119 102 175 38 38 243 265 124 94 58 65 71 63 80 65 59 64 74 73 64 59 50 55 52 217 208 201 193 184 186 191 184 185 185 193 204 293 262 288 295 287 292 290
85 110 96 134 186 287 321 53 127 122 36 38 65 35 37 38 74 43 44 47 46 37 37 27 27 167 160 169 176 178 169 171 177 173 190 174 140 260 324 290 289 285 283 287
59 95 118 133 145 200 237 159 52 65 46 36 58 43 40 48 65 288 32 43 37 41 88 118 135 138 141 143 158 160 149 156 149 149 144 187 291 297 283 286 282 285 282 287
45 15 143 130 181 285 226 146 166 96 217 71 64 58 51 74 112 110 28 60 80 112 123 140 147 137 134 149 165 153 155 144 153 158 139 320 290 278 277 274 276 295 304 298
158 139 190 99 104 278 172 109 129 172 87 74 64 55 46 35 28 30 106 104 114 117 123 131 142 134 132 142 160 140 131 122 58 325 314 290 267 268 283 296 305 294 293 297
128 172 173 160 207 215 96 100 96 99 78 57 61 61 65 62 39 107 120 125 130 136 137 135 142 135 133 144 152 19 310 288 288 302 282 274 284 295 297 297 290 287 291 293
94 138 109 85 326 95 89 94 95 93 83 80 84 88 68 71 124 126 127 126 123 117 115 118 116 65 9 340 314 314 307 295 297 294 289 296 297 298 294 289 288 288 291 289
202 120 148 111 112 85 71 87 107 106 94 98 96 86 106 141 127 132 125 117 108 95 69 39 15 10 63 19 338 332 321 304 297 299 297 298 298 296 295 295 296 289 281 285
115 172 137 198 104 111 99 104 122 116 106 110 109 95 95 100 107 102 90 82 74 76 77 69 57 49 34 2 325 312 309 306 303 304 305 302 297 297 298 298 298 291 292 298